This is the latest recevied weather packets stored in our database for station/object IT9RID. If no packets are shown the sender has not sent any weather packets the latest 10 day(s).
| Time | Temp. | Humidity | Pressure | Rain* | Wind** | Luminosity | Snow |
|---|---|---|---|---|---|---|---|
| 1777815218 | 18.33° C | 66% | 1020.4 hPa | 0 mm | - | - | - |
| 1777814618 | 18.33° C | 65% | 1020.4 hPa | 0 mm | - | - | - |
| 1777814019 | 18.89° C | 64% | 1020.4 hPa | 0 mm | - | - | - |
| 1777813418 | 18.89° C | 62% | 1020.4 hPa | 0 mm | - | - | - |
| 1777812818 | 18.89° C | 62% | 1020.6 hPa | 0 mm | - | - | - |
| 1777812217 | 18.33° C | 63% | 1020.7 hPa | 0 mm | - | - | - |
| 1777811617 | 18.89° C | 63% | 1020.7 hPa | 0 mm | - | - | - |
| 1777811017 | 19.44° C | 62% | 1020.8 hPa | 0 mm | - | - | - |
| 1777810417 | 18.89° C | 62% | 1020.8 hPa | 0 mm | - | - | - |
| 1777809817 | 18.33° C | 63% | 1021 hPa | 0 mm | - | - | - |
| 1777809217 | 18.89° C | 62% | 1021.1 hPa | 0 mm | - | - | - |
| 1777808617 | 18.89° C | 62% | 1021.1 hPa | 0 mm | - | - | - |
| 1777808016 | 18.33° C | 62% | 1021.2 hPa | 0 mm | - | - | - |
| 1777807416 | 18.33° C | 63% | 1021.2 hPa | 0 mm | - | - | - |
| 1777806816 | 18.33° C | 63% | 1021.2 hPa | 0 mm | - | - | - |
| 1777806216 | 18.33° C | 63% | 1021.1 hPa | 0 mm | - | - | - |
| 1777805616 | 18.33° C | 63% | 1021.1 hPa | 0 mm | - | - | - |
| 1777805016 | 18.33° C | 63% | 1021.2 hPa | 0 mm | - | - | - |
| 1777804415 | 17.78° C | 63% | 1021.2 hPa | 0 mm | - | - | - |
| 1777803815 | 17.78° C | 63% | 1021.4 hPa | 0 mm | - | - | - |
| 1777803215 | 17.78° C | 62% | 1021.5 hPa | 0 mm | - | - | - |
| 1777802616 | 17.78° C | 62% | 1021.6 hPa | 0 mm | - | - | - |
| 1777802015 | 17.78° C | 62% | 1021.6 hPa | 0 mm | - | - | - |
| 1777801415 | 17.78° C | 61% | 1021.7 hPa | 0 mm | - | - | - |
| 1777800815 | 17.78° C | 60% | 1021.8 hPa | 0 mm | - | - | - |
* Rain latest hour (hover to see other rain measurements)
** Current wind speed in m/s (hover to see current wind gust speed)